Location: Devargunta
(16.7631°N, 80.9077°E)
Time: 09:13:25
(UTC+00:00)

Cosmos 540 Rocket - Pass Details

Date: 19 May 2021
Orbit: 740 x 753 km, 74.1° (Epoch: 21 June)

Event Time Altitude Azimuth Distance (km) Brightness Sun altitude
Rises 13:36:48 0° 315° (NW) 3,173 8.2 -8.6°
Reaches altitude 10° 13:40:34 10° 286° (WNW) 2,251 7.5 -9.4°
Maximum altitude 13:42:39 13° 262° (W) 2,081 6.7 -9.9°
Drops below altitude 10° 13:44:45 10° 237° (WSW) 2,252 6.4 -10.3°
Sets 13:48:33 0° 209° (SSW) 3,177 6.8 -11.2°
